Wind_Speed
19 19 20 20 20 20 20 20 20 20 20 20 20 20 20 20 19 19 19 19 18 18 18 17 17 17 16 16 16 15 15 14 13 13 12 12 12 12 12 12 12 11 11
19 20 20 21 21 21 22 22 22 22 22 22 22 22 22 22 22 21 21 21 21 20 20 20 19 19 19 19 18 18 17 16 15 15 14 14 14 14 13 13 13 13 12
20 21 21 22 22 22 22 23 23 23 24 24 24 24 24 24 24 24 23 23 23 22 22 22 21 21 21 21 20 20 20 19 18 17 16 16 16 16 15 15 14 14 14
22 22 23 23 23 23 23 24 24 24 24 25 25 25 25 26 26 25 25 25 25 24 24 24 24 23 23 22 22 22 22 21 20 19 18 18 18 18 17 16 16 16 16
24 24 24 24 25 25 25 25 26 26 26 26 26 26 27 27 27 27 27 27 27 26 26 26 26 25 25 25 24 23 23 23 22 22 21 20 20 20 19 19 18 18 18
26 26 26 26 27 27 28 28 28 28 28 28 28 28 28 28 29 29 29 29 29 28 27 27 28 28 27 27 26 25 25 24 24 23 23 23 22 22 21 21 20 20 20
27 27 28 28 29 29 29 30 30 30 30 30 30 30 30 30 31 31 31 31 31 31 30 30 29 30 30 29 29 28 27 26 25 25 24 24 24 24 23 23 22 22 22
29 29 29 30 30 30 31 31 32 32 32 32 33 33 33 33 33 33 33 34 33 33 33 33 33 32 31 31 31 30 29 29 27 27 27 27 26 26 26 25 25 24 24
30 30 31 32 32 33 33 33 34 34 35 35 35 36 36 36 36 36 36 36 36 36 35 35 35 35 34 33 33 33 32 31 30 29 29 28 28 28 27 27 27 26 25
31 31 32 33 34 35 36 36 36 36 37 38 38 38 38 38 39 39 39 39 39 38 38 38 37 37 37 36 35 35 34 33 32 31 30 30 29 29 28 28 28 28 27
32 33 34 35 36 36 37 38 38 38 39 39 40 40 40 40 41 41 41 41 41 41 40 40 40 39 39 39 38 37 36 36 35 34 33 32 31 30 29 30 29 29 29
32 33 34 35 36 36 37 38 39 40 40 40 41 42 42 42 43 43 43 43 43 42 42 42 42 41 41 40 40 39 38 37 37 36 35 34 34 33 32 31 31 31 30
33 34 35 35 36 37 38 39 40 41 42 42 43 44 44 44 44 45 45 45 45 45 44 44 44 44 44 43 42 41 40 40 39 38 37 37 36 35 34 33 33 32 32
34 35 36 36 37 38 39 40 41 43 44 44 45 45 46 46 46 47 47 47 47 47 47 47 47 47 47 46 45 44 43 43 42 40 39 39 38 37 36 35 35 34 34
35 35 36 37 39 40 41 42 42 44 45 46 46 47 47 48 48 48 48 48 49 49 49 49 49 49 49 49 48 47 46 45 44 43 42 41 40 39 38 37 37 37 36
35 36 38 38 39 41 42 43 44 45 46 47 48 49 49 50 50 50 50 50 51 52 52 52 51 51 51 51 50 49 48 48 47 46 45 45 43 42 41 40 39 39 38
35 37 38 40 41 42 43 44 45 46 47 49 49 50 51 52 52 52 52 52 53 54 54 54 54 54 53 54 53 53 51 50 50 49 48 47 46 45 44 43 42 41 40
35 36 38 40 42 43 45 46 46 48 49 50 51 52 52 53 54 54 54 54 55 56 56 56 56 56 56 55 55 54 54 53 52 52 51 50 49 48 47 45 44 43 43
35 36 37 39 41 43 45 46 47 48 49 51 52 53 54 54 55 56 56 57 57 57 57 58 58 58 58 57 57 57 57 56 55 54 54 52 51 50 49 48 47 46 45
36 37 37 38 40 42 43 43 45 47 48 49 51 52 54 54 55 56 57 58 58 57 58 59 60 60 60 60 60 59 59 58 57 56 55 55 53 53 52 51 50 48 47
35 36 36 37 38 39 40 42 43 44 46 48 49 51 53 54 54 55 56 57 58 58 59 60 60 61 61 60 60 60 59 59 59 58 58 57 56 55 54 53 53 51 49
34 34 35 35 36 38 38 40 42 42 43 45 46 48 50 52 53 54 54 55 57 57 57 59 59 59 59 59 59 60 60 59 60 59 60 59 58 57 57 56 54 53 52
34 34 35 35 36 37 38 39 40 41 42 44 46 47 49 51 51 52 52 53 54 54 55 57 57 57 58 58 59 60 60 60 59 59 60 60 59 58 58 57 56 56 55
33 34 35 35 36 37 38 40 41 43 43 44 46 47 48 49 50 50 50 51 52 52 52 53 54 55 57 57 57 59 59 59 59 59 59 58 57 58 58 58 57 57 57
34 34 35 35 36 37 39 42 43 43 44 45 46 46 47 48 48 48 49 49 50 51 52 53 53 54 55 56 55 57 57 58 58 58 58 57 57 58 58 57 57 56 56
35 35 35 35 37 38 39 41 43 43 43 44 45 46 47 47 47 47 48 50 51 52 51 52 53 54 55 55 55 55 56 57 57 57 58 57 57 57 57 56 56 55 54
Wind_Direction
246 246 246 246 246 246 246 248 250 252 253 254 256 256 258 259 258 259 261 262 263 264 264 264 265 266 267 268 270 271 271 272 273 271 272 274 273 276 280 281 278 281 285
246 247 248 248 249 249 249 249 250 251 252 253 255 257 258 260 260 260 261 263 263 263 264 264 265 265 267 267 267 269 270 271 274 271 272 270 271 275 278 281 279 280 282
248 248 248 249 250 250 251 252 252 253 253 254 256 257 258 259 260 261 262 262 263 264 264 264 264 265 267 269 269 268 269 270 270 270 272 269 268 271 275 278 279 279 280
250 250 250 250 252 252 253 254 255 255 256 256 257 258 259 260 260 261 262 263 264 264 264 264 265 265 266 268 269 269 269 268 269 270 269 269 268 269 270 273 276 277 278
253 253 253 253 254 254 254 255 256 256 257 257 258 258 260 261 261 261 262 263 264 264 264 264 265 265 265 266 268 268 268 268 268 268 268 269 269 269 270 272 274 275 277
254 255 256 256 256 256 257 257 257 257 258 258 258 259 260 261 262 262 262 263 264 264 264 264 265 266 266 266 266 267 267 267 268 267 266 267 268 268 270 272 275 274 275
255 256 257 258 258 257 257 257 257 258 258 258 259 259 260 261 262 263 263 264 265 264 263 264 265 266 265 265 265 265 265 265 266 266 267 266 266 267 269 272 275 275 275
258 258 258 258 258 259 258 258 259 259 259 260 260 260 261 262 263 264 264 264 264 265 265 264 265 266 267 267 265 265 265 265 265 265 265 265 265 265 267 270 272 275 276
259 259 259 259 259 259 259 260 260 260 260 260 261 261 262 262 263 264 264 265 264 263 264 264 264 265 266 266 266 265 265 265 264 265 264 265 265 265 266 267 269 272 274
260 260 260 260 260 261 261 261 261 261 261 261 261 261 262 262 263 264 264 265 265 264 263 264 264 265 265 265 266 265 264 264 264 264 264 264 265 265 265 266 267 268 271
262 262 261 261 261 262 262 262 261 261 262 262 262 262 262 263 264 264 265 265 265 265 265 265 265 264 264 265 265 265 265 265 264 263 263 263 264 264 264 265 267 268 269
264 264 264 263 263 262 262 263 262 262 262 262 263 263 263 263 264 264 265 265 265 265 265 265 265 265 264 264 264 264 264 265 264 264 264 263 264 264 264 264 267 267 267
265 265 265 264 264 263 264 264 263 263 263 263 263 263 263 263 264 264 264 264 264 265 265 265 265 265 264 263 263 263 263 263 264 264 265 263 263 263 264 264 264 267 266
266 265 265 265 265 265 265 265 265 264 264 264 264 264 264 264 264 265 264 264 263 264 265 265 264 266 265 264 263 262 262 263 263 263 264 263 263 263 262 263 263 264 265
268 268 267 266 266 266 266 267 266 266 265 264 264 264 265 265 265 264 264 264 264 264 264 264 263 263 265 264 263 263 262 262 263 262 263 263 262 262 262 262 263 263 264
272 270 269 268 269 268 268 268 267 267 266 265 264 264 264 264 264 263 263 264 264 264 264 264 264 263 263 263 262 261 261 261 261 261 261 261 261 261 261 262 262 262 263
275 273 272 271 270 269 268 268 267 267 266 265 265 264 264 264 264 264 264 264 264 264 264 263 263 262 262 262 261 261 260 260 260 261 260 260 260 260 260 260 261 262 261
277 276 275 273 271 270 270 269 269 268 267 266 265 265 265 264 264 264 264 265 264 264 264 263 263 263 262 262 262 261 260 259 259 260 260 260 259 260 259 259 259 260 261
279 279 279 277 274 272 271 270 270 271 270 268 267 266 266 265 265 265 265 265 265 264 264 264 264 264 263 262 262 261 260 259 258 259 260 260 259 259 259 259 258 259 259
281 281 281 281 278 275 274 273 273 274 273 271 269 268 267 266 266 266 266 266 266 265 264 264 264 264 264 263 262 260 259 258 257 258 258 259 259 259 259 258 258 258 258
281 281 282 282 281 278 277 276 275 275 275 274 272 270 268 267 267 267 267 267 266 265 265 264 265 265 264 263 261 260 259 259 258 257 257 258 258 258 258 257 257 256 256
281 282 282 283 282 282 282 281 279 279 278 276 274 273 271 269 269 269 268 267 267 266 265 265 265 266 265 263 261 260 260 259 258 257 256 257 257 257 256 257 257 256 255
283 283 284 285 284 284 283 283 282 281 280 278 276 275 274 272 271 270 269 268 268 268 267 266 266 265 264 262 261 261 260 258 257 256 255 255 256 256 255 255 255 255 254
284 285 286 286 285 285 283 283 285 284 282 281 279 278 277 274 272 271 270 269 269 269 268 268 267 266 264 263 262 262 261 260 259 256 254 254 254 255 254 254 254 253 253
286 287 287 287 287 287 286 286 286 286 285 284 283 280 279 276 273 272 272 272 272 270 269 269 268 267 266 265 264 263 262 260 259 258 255 253 253 254 254 254 253 252 251
287 287 286 287 288 290 290 289 288 288 288 287 285 283 281 279 275 275 275 274 275 273 271 269 268 267 266 265 264 263 262 261 260 259 256 253 252 253 252 253 252 251 250
Height
5848 5849 5850 5850 5851 5852 5853 5854 5855 5856 5856 5857 5858 5858 5859 5860 5860 5861 5862 5862 5862 5863 5863 5863 5863 5863 5863 5863 5864 5863 5863 5863 5863 5862 5862 5862 5862 5861 5861 5860 5859 5859 5858
5845 5846 5846 5847 5848 5849 5850 5851 5852 5853 5853 5854 5855 5855 5856 5856 5857 5858 5858 5859 5859 5859 5860 5860 5860 5860 5860 5861 5861 5861 5861 5861 5861 5861 5860 5860 5860 5860 5859 5858 5858 5857 5856
5841 5842 5843 5844 5845 5846 5846 5847 5848 5849 5850 5851 5851 5852 5853 5853 5854 5854 5855 5855 5856 5856 5856 5857 5857 5857 5857 5857 5858 5858 5858 5859 5858 5858 5858 5858 5858 5857 5857 5856 5855 5855 5854
5838 5838 5839 5840 5841 5842 5843 5844 5845 5845 5846 5847 5848 5848 5849 5849 5850 5850 5851 5851 5852 5852 5853 5853 5853 5853 5853 5854 5854 5855 5855 5855 5855 5855 5855 5855 5855 5854 5854 5853 5853 5852 5852
5833 5834 5835 5836 5837 5838 5839 5839 5840 5841 5842 5843 5843 5844 5845 5845 5846 5846 5847 5847 5848 5848 5849 5849 5849 5850 5850 5850 5850 5851 5851 5851 5852 5852 5852 5852 5852 5851 5851 5850 5850 5849 5849
5829 5830 5831 5832 5832 5833 5834 5835 5836 5836 5837 5838 5839 5839 5840 5841 5841 5842 5842 5842 5843 5844 5844 5845 5845 5845 5845 5846 5846 5846 5847 5847 5848 5848 5848 5848 5848 5848 5847 5847 5847 5846 5846
5824 5825 5825 5826 5827 5828 5829 5829 5830 5831 5832 5833 5833 5834 5835 5835 5836 5836 5837 5837 5838 5838 5839 5840 5840 5840 5840 5841 5841 5841 5842 5842 5843 5843 5844 5844 5844 5844 5843 5843 5843 5842 5842
5818 5819 5820 5820 5821 5822 5823 5823 5824 5825 5826 5827 5828 5828 5829 5830 5830 5831 5831 5832 5832 5833 5833 5834 5834 5835 5835 5835 5835 5836 5837 5837 5838 5838 5839 5839 5839 5839 5839 5839 5839 5838 5838
5812 5813 5814 5814 5815 5816 5816 5817 5818 5819 5819 5820 5821 5822 5822 5823 5824 5824 5824 5825 5826 5826 5827 5827 5828 5828 5829 5829 5830 5830 5831 5831 5832 5833 5833 5833 5834 5834 5834 5834 5834 5833 5833
5806 5807 5807 5808 5808 5809 5810 5810 5811 5811 5812 5813 5814 5814 5815 5816 5816 5817 5817 5817 5818 5819 5820 5820 5821 5822 5822 5823 5823 5824 5824 5825 5826 5827 5827 5828 5828 5828 5829 5829 5828 5828 5828
5799 5800 5800 5801 5801 5802 5802 5803 5803 5804 5804 5805 5806 5806 5807 5808 5808 5809 5809 5810 5810 5811 5812 5812 5813 5814 5815 5815 5816 5817 5818 5818 5819 5820 5821 5821 5822 5822 5822 5823 5823 5822 5822
5792 5792 5792 5793 5793 5793 5794 5794 5795 5795 5796 5796 5797 5798 5798 5799 5800 5800 5801 5801 5802 5802 5803 5804 5805 5805 5806 5807 5808 5809 5810 5811 5812 5813 5814 5814 5815 5816 5816 5816 5816 5816 5816
5784 5784 5784 5784 5785 5785 5785 5785 5786 5786 5787 5787 5788 5788 5789 5790 5790 5791 5791 5792 5792 5793 5794 5795 5796 5796 5797 5798 5799 5801 5802 5803 5804 5805 5806 5807 5808 5808 5809 5809 5810 5810 5810
5776 5776 5776 5775 5776 5776 5776 5776 5776 5776 5777 5777 5778 5778 5779 5780 5780 5780 5781 5782 5782 5783 5784 5785 5786 5787 5787 5789 5790 5791 5793 5794 5795 5797 5798 5799 5800 5800 5801 5802 5802 5803 5803
5767 5767 5766 5766 5766 5766 5766 5766 5766 5766 5766 5766 5767 5767 5768 5769 5769 5770 5770 5771 5771 5772 5773 5774 5775 5776 5777 5778 5780 5781 5783 5784 5786 5787 5789 5790 5791 5792 5793 5794 5794 5795 5796
5757 5757 5756 5755 5755 5754 5754 5754 5754 5754 5754 5754 5755 5755 5756 5757 5758 5758 5759 5760 5760 5761 5762 5763 5763 5765 5766 5767 5769 5770 5772 5773 5775 5777 5778 5780 5781 5783 5784 5785 5786 5787 5788
5747 5746 5745 5744 5743 5743 5742 5742 5742 5741 5741 5741 5742 5743 5743 5744 5745 5746 5747 5748 5748 5748 5749 5750 5751 5752 5754 5755 5757 5758 5760 5762 5764 5765 5767 5769 5771 5773 5774 5776 5777 5778 5779
5737 5735 5734 5732 5731 5730 5730 5729 5729 5728 5728 5728 5728 5729 5729 5730 5731 5732 5733 5734 5734 5734 5735 5736 5737 5738 5739 5741 5743 5745 5747 5749 5751 5753 5755 5757 5759 5762 5764 5765 5767 5768 5769
5727 5725 5723 5721 5719 5718 5717 5716 5715 5714 5714 5713 5713 5714 5714 5715 5716 5717 5718 5719 5719 5719 5720 5721 5722 5723 5725 5726 5728 5730 5732 5735 5737 5740 5743 5745 5747 5750 5752 5754 5756 5758 5759
5717 5715 5713 5710 5708 5706 5704 5703 5702 5701 5700 5699 5698 5698 5699 5700 5701 5702 5703 5703 5703 5704 5704 5705 5706 5707 5709 5711 5712 5714 5717 5719 5722 5725 5728 5731 5734 5737 5739 5742 5744 5746 5748
5707 5705 5703 5700 5697 5695 5693 5692 5690 5689 5687 5686 5685 5684 5684 5685 5685 5686 5686 5687 5687 5687 5688 5689 5690 5691 5693 5694 5695 5698 5701 5703 5706 5709 5713 5716 5720 5723 5725 5728 5731 5733 5736
5698 5695 5693 5690 5687 5685 5682 5681 5679 5677 5676 5674 5672 5671 5670 5670 5670 5670 5670 5670 5671 5671 5671 5672 5673 5674 5676 5677 5678 5680 5684 5688 5691 5693 5696 5700 5704 5707 5710 5713 5717 5720 5723
5689 5686 5683 5680 5677 5675 5673 5671 5668 5666 5664 5663 5661 5659 5658 5656 5656 5655 5655 5654 5654 5655 5655 5656 5656 5657 5659 5661 5661 5663 5666 5671 5674 5678 5680 5683 5687 5691 5695 5698 5702 5705 5709
5680 5677 5674 5671 5668 5665 5663 5661 5658 5655 5653 5651 5649 5647 5645 5643 5642 5641 5641 5640 5640 5640 5640 5640 5640 5641 5642 5644 5645 5646 5649 5653 5656 5661 5665 5667 5670 5674 5678 5682 5686 5690 5693
5671 5668 5665 5662 5659 5656 5653 5650 5647 5644 5642 5639 5637 5635 5633 5630 5629 5628 5627 5626 5626 5625 5625 5625 5625 5626 5627 5628 5629 5631 5633 5636 5638 5642 5648 5652 5655 5659 5662 5666 5670 5674 5678
5662 5659 5656 5653 5650 5646 5643 5639 5636 5633 5630 5628 5625 5623 5620 5618 5616 5615 5614 5613 5612 5611 5610 5610 5610 5610 5611 5613 5614 5615 5617 5620 5623 5625 5630 5635 5639 5644 5647 5650 5655 5659 5663